Погода в Приветном

Украина / Волынская область     50°38′25″N   24°44′52″E
В апреле 2022 года жителям России запретили посещать сайт meteo.paraplan.net по решению Генеральной прокуратуры. Аудитория сайта уменьшилась в 10 раз. Владельцы сайта не видят смысла в поддержке погодного сервера в таких условиях. Сайт будет закрыт в октябре.
темп.,
°C
ветер,
м/с
пор.,
м/с
влажн.,
%
обл.,
%
осадки,
мм/ч
давл.,
гПа
погр.,
м
30 сентября, пт
пт3000:00+9с229799 0.0 100947
03:00+8с239864 0.0 101157
06:00+9св239699 0.0 1011126
09:00+10в2393100 0.0 1012174
12:00+13вюв2284100 0.0 1013385
15:00+16вюв4572100 0.0 1012677
18:00+13юв51194100 1.8 1012445
21:00+14ю51194100 4.0 1012442
1 октября, сб
сб100:00+11юз7139332 0.1 1013482
03:00+10з61395100 0.1 1015539
06:00+10зюз4695100 0.0 1016399
09:00+10юз2595100 0.0 1016218
12:00+11зюз249198 0.1 1016306
15:00+13юз248559 0.1 1014397
18:00+12ююз1293100 0.0 101347
21:00+12юв1196100 0.3 101215
2 октября, вс
вс200:00+12ююв1298100 0.2 101142
03:00+11зюз2298100 0.2 101031
06:00+11з61192100 1.0 1010525
09:00+10з51188100 1.1 1011677
12:00+12зсз6118095 0.1 10111008
15:00+12з7118880 0.9 1011863
18:00+11зсз71385100 0.5 1012811
21:00+10зсз61285100 0.7 1013671
3 октября, пн
пн300:00+9зсз613899 0.3 1013603
03:00+10зсз61289100 0.4 1013655
06:00+9зсз61390100 0.1 1013676
09:00+9зсз61290100 0.1 1013734
12:00+9зсз61086100 0.1 1014995
15:00+10зсз61183100 0.2 10141163
18:00+10зсз61186100 0.2 1014908
21:00+10з61287100 0.4 1015667
4 октября, вт
вт400:00+10з71384100 0.0 1014723
03:00+9з7148893 0.5 1013785
06:00+9з7139045 0.2 1012754
09:00+9зсз6118994 0.8 1013702
12:00+10зсз598487 0.2 1014868
15:00+11сз6875100 0.3 1015975
18:00+11сз5875100 0.0 1016871
21:00+10з4108399 0.0 1017339